This is the latest recevied weather packets stored in our database for station/object I1SXT-13. If no packets are shown the sender has not sent any weather packets the latest 10 day(s).
| Time | Temp. | Humidity | Pressure | Rain* | Wind** | Luminosity | Snow |
|---|---|---|---|---|---|---|---|
| 1777727669 | 23.33° C | 39% | 1025.3 hPa | 0 mm | - | - | - |
| 1777727365 | 23.33° C | 37% | 1024.6 hPa | 0 mm | - | - | - |
| 1777726764 | 22.78° C | 36% | 1025.2 hPa | 0 mm | - | - | - |
| 1777725568 | 22.22° C | 36% | 1025.6 hPa | 0 mm | - | - | - |
| 1777724670 | 22.22° C | 41% | 1025.6 hPa | 0 mm | - | - | - |
| 1777724366 | 22.22° C | 39% | 1024.9 hPa | 0 mm | - | - | - |
| 1777723467 | 22.22° C | 38% | 1025.2 hPa | 0 mm | - | - | - |
| 1777723163 | 21.67° C | 40% | 1025.7 hPa | 0 mm | - | - | - |
| 1777722569 | 21.67° C | 39% | 1025.9 hPa | 0 mm | - | - | - |
| 1777721968 | 21.11° C | 38% | 1025 hPa | 0 mm | - | - | - |
| 1777721663 | 21.11° C | 36% | 1025.8 hPa | 0 mm | - | - | - |
| 1777721366 | 21.11° C | 35% | 1025.8 hPa | 0 mm | - | - | - |
| 1777721069 | 21.67° C | 37% | 1025.8 hPa | 0 mm | - | - | - |
| 1777720765 | 21.67° C | 34% | 1026.1 hPa | 0 mm | - | - | - |
| 1777720468 | 21.67° C | 36% | 1025.8 hPa | 0 mm | - | - | - |
| 1777720164 | 21.11° C | 35% | 1025.7 hPa | 0 mm | - | - | - |
| 1777719867 | 21.11° C | 36% | 1026.3 hPa | 0 mm | - | - | - |
| 1777719570 | 20.56° C | 35% | 1025.8 hPa | 0 mm | - | - | - |
| 1777719266 | 21.11° C | 35% | 1026.1 hPa | 0 mm | - | - | - |
| 1777718969 | 20.56° C | 33% | 1026.4 hPa | 0 mm | - | - | - |
| 1777718664 | 20.56° C | 34% | 1026.1 hPa | 0 mm | - | - | - |
| 1777718367 | 20.56° C | 32% | 1026.6 hPa | 0 mm | - | - | - |
| 1777718070 | 20.56° C | 33% | 1026.1 hPa | 0 mm | - | - | - |
| 1777717766 | 21.11° C | 33% | 1026.6 hPa | 0 mm | - | - | - |
| 1777717469 | 21.11° C | 34% | 1026.2 hPa | 0 mm | - | - | - |
* Rain since midnight (hover to see other rain measurements)
** Current wind speed in m/s (hover to see current wind gust speed)